Wind_Speed
75 76 76 76 77 77 77 77 78 78 78 79 79 80 81 81 82 83 83 84 84 85 85 86 87 89 90 91 92 93 93 94 94 94 94 94 93 93 92 91 91 90 91 91 92 92 92 91 91 91 90 89 89 89 90 91 91 91 91 91 91 90 89 89 89 88 87 85 82 80 80 79 78 77 77 77 78 79 79 79 78 78 77 76 76
77 77 78 78 78 79 79 80 80 80 80 81 81 82 83 83 84 85 85 86 87 87 87 88 89 90 91 91 92 93 94 94 95 96 96 97 97 98 98 97 96 96 95 95 96 97 97 97 96 97 97 96 94 94 94 94 94 93 93 95 96 96 97 95 93 91 90 89 87 85 84 83 82 81 80 79 78 79 79 80 80 80 80 79 78
78 78 79 79 80 80 81 80 80 80 81 81 82 83 84 85 85 86 87 88 88 89 89 90 90 91 91 92 92 93 93 94 95 95 96 97 98 99 101 102 102 102 101 101 101 102 102 102 102 102 103 102 101 100 100 99 99 98 97 97 97 98 99 100 100 97 95 93 92 90 88 87 85 85 84 83 82 81 80 79 80 81 81 81 80
78 79 79 80 80 80 80 80 81 81 82 82 83 84 85 86 87 87 88 89 89 90 90 91 91 92 92 93 93 94 94 94 95 96 96 97 98 99 100 101 103 104 105 105 106 106 107 106 106 107 107 106 105 105 105 104 104 103 102 102 102 101 101 102 102 102 101 100 99 97 96 94 91 89 88 87 86 85 83 82 81 81 82 82 82
79 79 79 79 79 80 80 81 82 82 83 84 84 85 86 87 88 88 89 89 90 90 90 91 91 91 92 92 93 93 94 94 95 95 96 97 98 99 100 101 102 103 104 105 106 108 109 109 109 110 110 109 109 108 108 107 106 106 106 106 106 106 106 106 105 105 105 104 103 103 103 102 101 98 95 93 91 88 87 85 83 82 81 82 82
79 79 79 79 80 81 81 82 82 83 83 84 85 86 87 88 88 89 89 89 89 90 90 91 91 92 92 92 93 94 94 95 95 96 97 97 98 98 99 100 101 102 103 103 104 106 107 108 110 111 112 112 111 111 111 110 110 109 109 109 109 109 109 109 109 109 109 108 106 105 105 105 105 104 102 100 98 95 92 90 88 86 84 83 82
79 80 80 80 81 81 82 82 83 83 84 85 86 87 87 88 88 89 89 89 90 90 91 91 92 92 93 93 94 94 95 95 96 97 97 98 98 99 99 100 101 102 102 103 104 104 105 106 107 109 110 111 112 113 113 113 113 113 112 112 112 112 112 112 112 112 113 112 111 110 108 107 106 106 105 104 103 100 98 96 93 91 89 87 85
80 80 80 81 81 82 82 83 84 84 85 86 87 87 88 88 89 89 89 89 90 90 90 90 90 91 91 91 92 92 92 93 94 94 95 96 97 97 98 99 100 100 101 101 102 103 104 105 106 107 108 109 110 112 113 114 114 114 114 115 115 115 115 115 115 115 115 115 114 113 112 111 110 109 107 107 105 103 102 102 100 96 93 92 90
80 80 81 81 82 83 83 84 85 86 86 87 87 88 88 88 88 88 88 88 88 88 87 87 86 86 86 85 85 86 86 87 87 88 89 90 91 92 93 94 95 96 98 98 99 100 101 102 103 104 105 107 108 109 110 112 113 114 115 116 116 117 118 118 118 118 117 117 116 115 115 114 113 112 111 110 108 106 105 105 104 101 98 96 93
80 81 82 82 83 84 84 85 86 87 87 87 88 88 88 87 87 87 86 85 84 83 82 81 80 80 79 78 78 78 79 80 81 82 83 84 85 86 86 87 88 90 91 93 93 94 95 97 98 99 100 102 103 105 106 107 109 111 112 114 115 116 117 118 118 119 119 119 118 117 116 116 114 113 113 112 112 110 109 108 107 105 103 101 97
81 82 83 83 84 85 86 87 87 88 88 88 87 87 86 85 84 83 82 80 79 78 76 75 74 73 73 73 73 73 74 75 76 76 77 78 79 79 80 80 81 82 83 84 85 86 87 88 90 92 93 94 95 96 98 99 101 103 105 107 110 112 114 115 116 116 117 118 119 119 118 117 115 113 113 113 113 113 112 110 109 108 107 106 103
82 83 83 84 85 86 87 88 88 88 87 86 85 84 82 81 79 77 76 74 72 71 70 69 69 69 69 69 69 70 71 71 72 72 72 73 74 74 74 74 74 74 75 75 76 77 79 80 82 83 84 85 86 87 88 89 90 92 94 96 98 101 104 107 109 111 112 114 115 117 118 118 116 114 113 113 114 114 114 113 111 110 109 109 107
82 83 85 86 87 88 88 88 87 86 85 83 81 79 77 75 73 71 69 67 66 66 65 65 66 66 66 67 67 68 68 69 70 70 70 71 71 71 71 70 69 69 69 70 70 71 72 73 74 74 75 76 77 79 79 80 81 82 83 85 86 88 90 94 97 101 103 106 109 111 112 113 114 114 113 113 113 114 115 114 113 112 110 110 109
83 85 86 87 88 87 87 86 84 83 80 78 75 73 70 68 66 65 64 63 63 63 64 64 65 65 66 66 66 67 68 69 69 70 70 70 70 70 69 68 68 67 67 68 69 69 69 69 69 69 70 71 72 73 74 74 75 76 76 76 77 78 79 82 84 87 91 94 97 100 102 103 106 108 109 110 111 113 115 114 114 113 111 110 109
85 86 86 86 86 85 83 82 80 77 74 71 69 66 65 63 62 62 62 62 62 63 64 64 65 66 66 67 67 67 68 70 70 70 70 70 70 70 69 68 67 67 67 68 68 68 68 67 67 67 67 68 68 70 70 70 70 71 71 72 72 73 74 75 77 78 80 82 85 88 90 92 95 98 100 102 104 107 110 110 111 112 111 111 110
85 85 85 84 83 81 80 77 75 71 68 66 64 62 61 61 61 61 62 62 63 64 65 65 66 66 67 67 68 68 69 70 70 70 70 70 70 69 68 67 66 66 66 66 66 66 65 64 63 63 62 62 62 63 63 63 63 63 63 64 66 67 68 70 72 74 75 77 78 79 81 82 84 86 88 91 94 96 99 102 105 107 109 109 109
83 83 82 81 80 78 75 72 69 67 64 62 61 61 61 61 62 63 63 64 65 66 66 66 67 67 68 69 69 69 69 70 70 70 71 70 69 68 66 65 64 63 62 62 61 60 59 57 56 56 55 55 54 54 54 53 53 52 52 53 55 57 58 61 63 66 69 72 73 75 76 77 79 80 80 82 84 87 90 94 97 100 102 105 108
81 80 79 77 75 73 70 68 65 63 62 61 61 62 63 63 64 65 65 66 66 67 67 67 68 69 69 70 70 69 69 70 70 70 70 69 68 66 63 61 59 58 57 56 55 54 52 51 51 51 50 49 49 49 49 48 47 47 47 48 49 50 52 54 57 59 62 64 66 68 70 72 74 76 77 78 79 81 85 88 89 92 94 98 103
77 76 75 73 70 68 66 64 63 62 62 62 63 63 64 65 66 66 67 67 67 68 68 69 69 69 70 70 69 69 68 68 69 68 67 66 64 62 58 55 53 52 51 50 49 49 49 48 48 48 48 47 47 48 48 49 49 49 49 49 49 49 50 52 54 56 58 60 62 63 65 66 68 70 72 74 76 78 81 83 85 87 89 91 95
73 71 69 68 66 65 63 62 62 62 63 63 64 65 66 66 67 67 68 68 69 69 69 69 69 68 68 68 68 67 66 66 65 64 63 61 59 56 53 49 47 46 45 45 45 45 46 46 47 47 47 47 47 48 49 51 52 52 51 51 51 50 51 51 51 52 53 55 57 59 61 63 65 66 67 69 71 73 76 79 81 84 87 89 90
67 66 65 64 63 62 62 62 62 63 64 64 65 66 67 67 68 68 69 69 69 69 69 69 67 66 66 65 65 64 63 62 60 58 57 55 53 50 47 45 44 43 42 42 42 42 42 43 44 45 46 47 48 49 51 52 53 53 52 52 51 52 52 52 51 51 51 51 52 53 55 57 59 61 63 64 66 69 71 74 77 79 82 85 87
62 61 61 61 61 61 61 62 63 63 64 65 66 67 68 68 68 68 68 68 68 68 67 67 65 63 62 62 61 60 58 57 56 53 51 49 47 46 44 43 42 42 41 40 40 40 40 41 42 44 46 47 48 49 50 51 52 52 52 51 52 52 52 52 52 52 51 52 52 52 52 54 55 56 58 60 62 65 68 71 74 77 79 82 84
58 58 59 59 60 61 61 62 63 64 65 65 66 66 67 67 67 68 68 67 67 66 65 64 62 60 59 57 56 55 54 53 51 48 46 44 43 42 42 42 42 42 40 39 38 39 39 40 41 43 45 46 47 48 49 50 50 50 51 51 52 52 52 53 53 53 53 54 54 54 54 55 56 56 57 59 61 63 66 68 71 74 78 80 83
57 58 58 59 60 61 62 63 64 64 65 65 65 66 66 66 66 67 66 65 64 63 62 61 60 57 55 53 51 51 51 49 46 44 42 41 40 40 41 41 42 41 40 39 38 37 37 38 40 41 43 43 44 45 46 46 47 48 49 50 51 52 53 53 54 55 55 56 56 56 57 58 58 58 58 60 61 62 64 66 69 72 76 79 81
56 57 58 59 60 61 62 63 64 65 65 66 66 66 66 66 65 65 64 63 62 61 60 59 57 55 53 51 49 49 48 45 42 40 40 39 39 40 41 42 42 42 41 40 38 37 37 38 39 40 40 41 42 43 44 46 47 48 49 50 52 53 53 54 55 56 56 57 58 58 58 59 60 60 61 62 63 64 66 68 70 72 75 78 81
57 58 59 59 60 61 62 63 64 65 66 66 66 65 65 64 63 62 62 61 60 59 58 56 55 53 52 51 49 47 45 42 39 38 38 38 38 40 42 43 43 43 42 41 41 40 41 41 41 41 42 43 44 45 47 49 50 51 52 53 54 54 55 55 56 57 57 58 59 59 60 61 62 62 64 66 67 68 71 73 74 74 75 77 80
57 57 58 58 59 59 60 61 63 63 63 63 63 63 62 61 60 59 58 57 57 56 55 54 53 52 52 51 49 46 43 40 38 37 37 37 39 40 42 42 43 42 42 42 41 41 42 42 42 43 44 45 47 48 50 52 53 54 55 55 55 55 56 56 57 57 58 59 60 60 61 62 63 65 67 69 71 72 75 78 77 76 76 77 79
56 56 57 57 58 58 59 60 60 60 60 60 59 59 58 57 56 55 55 55 55 54 54 54 54 53 52 51 49 45 41 38 37 37 37 38 39 40 41 41 41 41 40 40 40 40 40 41 42 43 45 46 49 51 52 54 55 56 56 56 56 56 56 56 57 58 59 60 60 61 62 64 65 67 70 72 74 76 78 78 76 74 73 75 76
55 56 56 57 57 58 58 59 59 58 57 57 55 55 54 54 53 53 54 55 55 55 55 54 54 54 52 50 48 44 39 37 37 37 37 39 40 40 39 39 39 39 39 39 40 40 41 42 44 45 47 49 51 53 55 56 56 56 56 56 56 55 54 54 55 57 58 60 61 62 64 66 68 70 73 74 74 74 74 72 70 69 68 69 71
55 55 56 56 56 57 57 57 57 56 55 54 53 52 52 52 53 53 54 55 57 57 56 56 55 54 52 49 46 41 37 36 36 36 37 38 39 39 38 38 38 38 38 39 40 41 42 43 46 47 49 51 53 55 56 56 55 55 55 54 52 50 50 51 53 55 56 58 60 62 65 67 69 71 72 71 69 67 66 65 64 64 63 64 64
55 55 55 55 56 56 56 56 56 55 54 53 52 51 51 52 54 55 56 57 58 59 59 58 57 56 53 49 43 38 35 35 34 35 36 37 38 38 38 38 37 38 39 40 41 42 43 45 47 49 51 53 54 55 55 55 54 53 50 47 45 45 47 49 51 52 54 56 58 61 64 66 67 66 65 63 61 60 60 60 60 59 59 59 59
55 55 55 55 55 55 56 56 55 55 54 53 53 52 52 52 54 56 58 59 60 60 61 60 58 57 54 49 41 35 33 33 33 35 36 36 37 38 38 38 37 38 40 41 42 43 45 46 48 50 52 53 54 54 54 53 51 48 43 40 40 42 44 46 48 49 51 53 56 59 60 60 59 58 57 56 56 55 54 54 54 54 54 54 55
55 55 55 55 55 55 56 56 56 56 55 54 54 55 55 55 55 56 58 60 61 61 62 61 58 55 51 46 38 32 31 32 32 34 35 35 36 37 38 38 38 38 40 41 42 44 46 47 49 50 51 52 52 51 50 47 44 40 37 36 37 39 41 43 44 46 49 52 54 55 55 54 52 51 50 50 50 49 48 47 47 48 48 49 50
56 56 56 55 55 56 57 57 57 57 57 56 56 57 57 58 58 58 58 59 61 62 62 60 56 51 47 42 34 30 29 30 32 33 34 34 35 36 37 38 38 39 40 41 43 45 46 48 49 50 50 50 50 47 43 39 35 34 33 34 35 36 37 40 42 45 48 50 51 51 49 48 47 46 44 43 43 43 42 41 41 41 42 44 44
57 57 57 57 57 57 58 58 59 58 58 58 58 59 59 60 60 60 60 60 60 59 58 55 51 46 42 37 32 28 28 30 32 33 33 33 34 35 36 37 39 40 40 42 43 45 46 47 48 48 47 46 45 41 36 32 31 31 31 32 32 34 36 38 41 44 47 48 47 46 45 43 43 42 39 37 36 37 36 36 36 36 37 38 39
59 58 58 58 58 59 59 60 60 60 59 59 60 60 60 60 60 61 61 60 57 54 50 48 46 43 38 32 30 29 28 30 32 32 32 32 33 33 34 36 38 39 40 41 42 44 45 45 46 45 44 42 39 35 31 30 30 30 30 30 31 33 35 38 41 43 45 45 43 41 40 39 38 37 35 33 32 32 31 31 31 31 32 33 35
60 60 60 60 60 61 61 61 61 61 60 60 60 60 60 60 60 60 59 56 52 48 44 43 42 40 33 28 27 29 29 29 30 30 31 32 32 33 34 36 37 38 40 40 41 42 42 43 43 42 41 38 34 31 30 30 30 29 29 29 31 33 35 38 41 43 44 43 40 38 37 36 34 33 31 30 29 29 27 26 26 27 28 29 31
61 61 62 62 63 63 63 62 62 61 60 59 59 59 59 60 60 58 54 51 47 44 42 40 37 34 30 27 27 28 29 30 29 30 30 31 32 33 34 36 37 38 39 39 39 40 40 40 39 39 38 36 33 31 30 30 30 30 29 30 31 33 35 37 40 42 42 41 38 35 34 33 31 30 28 27 26 26 25 23 23 24 26 27 29
62 63 63 64 64 65 64 64 62 61 60 59 58 58 59 59 57 54 50 47 44 41 40 36 31 28 27 27 27 28 29 29 29 30 31 31 31 32 34 35 36 37 37 38 38 38 38 38 37 36 36 35 33 31 31 31 31 30 29 29 31 32 34 35 37 39 39 38 35 32 31 30 29 28 26 24 24 23 23 22 21 21 23 25 28
63 64 65 66 66 67 66 65 62 60 59 57 57 58 58 56 54 50 47 44 42 40 36 31 27 25 25 26 27 27 27 27 28 29 30 30 31 32 33 34 35 35 36 36 36 36 36 36 35 34 35 34 32 31 31 31 31 30 29 30 30 31 32 33 35 36 36 34 32 29 28 27 27 26 25 24 23 22 21 20 19 19 20 21 24
65 66 66 67 68 69 68 65 62 59 57 56 57 57 56 53 50 48 45 42 40 36 31 26 24 24 25 25 26 26 26 26 27 28 28 29 30 32 32 33 33 33 34 35 35 35 35 34 33 33 34 34 32 31 30 30 30 30 30 30 30 30 30 31 32 34 34 32 30 28 26 25 25 24 23 22 22 21 21 21 19 18 18 18 19
66 67 68 69 70 70 69 65 60 57 56 56 56 56 53 50 47 45 43 40 35 30 25 24 23 24 24 24 25 25 25 26 27 27 27 28 30 31 32 32 32 32 33 33 34 34 34 33 31 31 32 33 33 31 29 29 29 29 29 29 29 28 28 28 29 31 32 31 29 27 25 24 24 23 22 22 21 20 20 21 21 20 18 18 18
68 69 69 70 72 72 69 63 58 56 56 56 55 53 49 46 45 43 40 35 29 24 22 23 23 23 23 24 23 23 24 25 26 26 27 28 29 30 32 32 32 32 32 32 32 33 33 33 31 30 30 31 32 31 29 27 27 27 28 28 27 27 26 26 27 29 30 31 30 28 26 24 23 23 23 22 21 20 19 19 20 20 20 19 18
69 70 71 72 73 73 67 61 57 56 56 55 53 49 45 44 43 40 34 28 23 21 21 22 23 23 23 22 22 23 24 25 25 26 27 28 29 30 31 32 32 33 33 32 32 32 32 32 32 30 30 30 31 31 30 29 27 26 26 26 26 25 25 25 26 27 28 29 29 29 28 26 24 23 23 22 21 20 19 17 17 18 19 20 19
71 71 72 74 75 71 64 58 57 56 55 53 49 45 42 42 40 34 26 22 21 21 21 22 22 22 22 21 22 23 24 24 24 25 27 28 29 30 31 31 32 32 32 32 32 32 32 32 31 31 30 30 30 30 30 30 28 27 26 25 25 25 25 25 25 26 26 27 27 28 27 26 24 22 22 22 21 20 19 17 16 15 16 17 19
72 73 75 77 74 67 61 58 57 55 52 48 44 41 40 38 33 26 21 20 20 21 21 21 21 21 21 21 22 23 23 24 24 26 27 28 30 30 31 31 31 31 32 32 31 31 31 31 30 30 30 30 30 30 30 30 29 28 27 27 26 26 26 26 26 26 25 25 25 25 25 25 24 21 20 21 21 20 19 18 17 15 15 14 15
74 76 78 76 70 63 59 57 54 51 47 43 40 38 36 32 25 21 20 20 20 21 21 20 20 19 19 20 21 22 23 24 25 26 27 29 30 30 31 31 31 31 31 31 31 31 31 30 30 30 29 29 30 30 30 30 30 29 28 28 27 27 26 26 26 27 26 25 24 24 24 24 23 21 19 19 20 20 19 17 16 15 15 14 13
77 79 77 71 64 59 56 53 49 45 41 38 36 35 30 25 21 20 20 20 20 20 20 19 19 18 19 20 20 21 22 24 25 26 28 29 30 30 30 30 30 30 31 31 31 30 30 30 30 29 29 29 29 29 29 30 30 30 29 28 28 28 27 27 27 27 26 25 24 23 23 23 23 21 19 19 19 20 18 16 14 13 13 13 13
79 76 70 63 59 55 51 46 43 40 37 35 33 29 24 21 20 20 20 20 20 20 19 19 18 18 18 19 20 21 22 24 25 27 28 29 30 30 30 29 29 30 30 31 31 30 30 30 30 29 29 28 28 28 28 29 29 29 29 29 28 28 27 27 27 27 26 25 24 23 22 22 22 21 20 19 19 19 18 17 14 13 12 12 12
74 68 62 57 53 49 45 42 39 36 34 31 28 23 22 21 20 20 20 20 19 19 18 18 17 17 18 19 20 21 23 24 25 27 28 29 30 30 29 29 29 29 29 30 30 30 30 30 29 29 29 28 27 27 27 27 27 28 28 27 27 27 27 27 27 26 26 25 24 23 22 21 21 20 20 19 19 18 18 17 15 14 13 12 11
65 60 57 53 48 44 41 39 36 33 30 26 23 22 21 20 20 19 19 19 19 18 17 17 17 17 18 19 20 22 23 25 26 28 29 29 30 30 29 29 28 28 29 30 30 30 30 30 29 29 29 28 27 27 26 26 26 26 26 26 26 26 26 26 26 26 25 25 24 23 22 21 20 20 19 19 18 18 17 16 15 14 13 13 12
Wind_Direction
280 280 280 280 280 280 280 280 280 281 281 281 282 282 282 283 283 283 283 283 282 282 281 281 281 280 280 280 280 279 279 278 278 278 277 277 276 275 275 274 274 274 274 274 274 274 273 272 271 271 270 268 267 266 265 264 264 264 263 263 263 264 263 262 261 259 258 258 258 257 256 256 255 255 254 253 253 253 253 253 253 253 254 254 254
280 280 280 281 281 281 281 282 282 283 283 283 283 284 284 284 284 284 284 284 283 283 282 282 281 281 281 280 280 280 279 279 278 278 277 277 277 276 276 275 275 275 274 274 274 274 274 274 274 274 273 272 271 270 269 268 267 266 266 265 264 264 264 264 263 261 259 259 259 258 258 257 257 256 256 256 255 254 254 253 253 253 253 253 253
281 281 281 282 282 282 283 283 284 284 284 285 285 285 285 285 285 285 285 285 284 284 283 283 282 282 281 281 280 280 279 279 278 278 277 277 276 276 276 276 276 276 275 275 274 274 274 274 274 275 275 274 274 273 272 271 270 270 269 268 267 266 265 265 264 262 260 260 260 260 260 259 259 258 258 258 257 257 256 255 255 254 253 253 253
282 282 282 282 282 283 283 284 285 285 286 286 287 287 287 287 287 286 286 285 285 285 284 284 283 282 282 281 281 280 280 279 278 278 277 277 276 275 275 275 275 275 274 274 274 274 273 273 274 274 274 274 274 274 273 273 272 272 271 271 270 269 268 268 266 265 262 260 260 261 261 261 262 261 261 260 260 259 258 257 257 256 255 254 254
282 282 282 283 284 285 286 286 287 288 288 288 289 288 288 288 287 287 287 286 286 285 285 284 284 283 282 282 281 281 280 280 279 278 277 277 276 275 275 274 274 274 274 273 273 273 273 273 273 273 273 273 273 273 273 273 273 273 273 272 272 272 271 270 270 268 266 263 261 261 261 262 263 263 263 263 262 261 261 260 259 258 257 256 255
284 284 285 286 287 287 288 288 289 289 290 290 289 289 289 289 288 288 287 287 286 286 286 285 285 284 284 283 283 282 281 281 280 279 279 278 277 276 276 275 274 274 274 274 273 273 272 272 272 272 272 272 272 272 272 272 272 272 272 272 273 273 273 272 272 271 270 268 265 263 262 262 262 263 264 264 263 262 262 262 261 260 259 257 256
286 287 287 288 288 289 289 290 290 290 290 290 290 290 290 289 289 289 288 288 287 287 287 287 286 286 285 285 284 284 283 282 282 281 280 279 278 277 277 276 275 275 274 274 274 273 273 272 272 271 271 271 272 272 272 272 272 272 272 272 272 272 272 272 272 272 271 270 269 267 265 263 262 262 263 264 264 264 263 262 261 261 261 260 258
288 288 289 289 289 290 290 290 291 291 291 291 291 290 290 289 289 289 289 288 288 288 287 287 287 286 286 285 285 284 284 283 283 282 281 280 280 279 278 277 277 276 275 275 275 274 274 273 273 272 271 271 271 271 271 271 271 271 272 272 272 272 272 271 271 271 271 271 270 269 267 266 265 264 263 263 264 264 264 264 262 261 261 260 259
289 289 289 289 290 290 291 291 291 291 291 291 291 290 290 290 289 289 289 289 289 289 288 288 287 287 287 286 285 285 284 284 283 283 282 281 281 280 279 279 278 277 277 276 276 276 275 274 274 273 273 272 271 271 270 270 269 269 269 269 270 270 270 271 270 270 270 270 269 269 268 267 266 266 265 264 264 264 263 263 263 262 261 260 260
289 289 289 290 290 291 291 291 292 291 291 291 291 291 290 290 290 290 290 290 290 290 289 289 288 288 287 287 287 286 286 286 285 285 284 283 283 282 281 281 280 279 278 277 277 277 276 276 275 274 274 273 273 272 271 270 270 269 268 268 268 268 268 268 269 269 269 269 269 268 268 267 267 267 266 266 265 265 264 263 263 262 261 261 260
289 289 290 290 291 291 292 292 292 292 292 292 292 292 292 292 292 292 292 291 291 290 290 289 289 289 288 288 288 288 287 287 287 286 286 286 285 284 283 282 281 281 280 279 278 278 277 277 276 276 275 275 274 273 273 272 271 270 269 268 268 267 267 266 266 267 267 267 268 267 267 267 266 266 266 266 266 266 265 264 264 262 261 261 260
289 290 291 291 292 292 293 293 293 293 293 293 293 293 293 293 293 293 292 292 291 291 291 290 290 290 290 289 289 289 289 289 289 288 288 288 287 285 284 284 283 282 282 281 280 279 278 278 277 277 277 276 275 275 274 273 273 272 271 270 269 268 268 267 266 265 265 265 265 265 266 266 266 266 266 266 266 265 265 265 264 263 262 261 260
290 291 291 292 292 293 293 293 293 294 294 294 294 294 294 294 293 293 292 292 292 291 291 291 291 291 291 291 291 291 291 291 291 291 290 289 288 287 287 286 286 285 285 284 283 281 280 279 279 278 277 277 276 275 274 274 273 272 272 271 270 270 269 268 267 266 265 264 264 264 264 264 265 264 265 265 265 264 264 264 264 264 263 262 261
291 292 292 293 293 293 294 294 294 294 294 294 294 294 294 293 293 292 292 292 291 291 291 291 292 292 292 292 293 293 293 293 293 292 292 291 290 289 289 289 289 288 287 286 285 284 283 282 280 279 278 277 276 275 274 273 273 273 272 272 271 271 270 270 269 269 268 267 265 264 263 263 263 262 262 263 264 264 263 263 263 263 263 262 262
292 293 293 293 293 293 293 293 293 293 293 294 293 293 293 292 292 292 292 292 292 292 292 292 293 293 294 294 294 294 295 294 294 293 292 291 291 291 291 291 290 290 289 287 286 285 284 284 282 280 279 278 277 276 275 274 273 273 272 272 271 270 270 269 269 269 269 269 268 266 264 263 262 262 261 261 262 262 263 263 262 262 262 262 261
293 293 293 293 293 293 293 293 293 293 293 293 293 293 293 293 293 293 293 293 293 293 294 294 294 294 294 295 295 296 296 295 294 293 292 292 291 292 292 292 291 290 289 288 287 286 286 285 283 281 280 279 278 277 276 275 274 273 273 272 271 270 270 269 269 268 268 268 268 268 266 265 264 263 261 260 260 261 261 261 261 261 261 261 261
293 293 292 292 292 292 292 293 293 293 293 293 293 293 294 294 294 294 294 294 294 294 294 295 295 295 295 296 296 296 296 295 294 293 293 292 292 292 292 292 291 290 289 288 288 287 286 284 282 281 280 280 279 278 277 277 276 275 275 274 273 273 272 271 270 269 269 268 268 268 267 267 266 265 263 262 261 261 260 260 260 260 260 260 260
292 292 292 292 292 292 293 293 293 294 294 294 294 294 294 294 294 294 294 294 294 295 295 295 296 296 296 297 297 297 296 295 294 293 292 292 292 292 292 291 290 289 289 289 288 287 285 283 281 280 279 279 279 279 278 278 278 278 277 277 277 277 275 274 272 271 270 270 269 269 268 268 267 266 266 264 263 262 261 261 260 259 259 259 259
292 291 292 292 293 293 294 294 294 294 294 294 294 294 294 294 295 295 295 295 295 295 295 296 297 297 297 298 297 296 295 294 293 293 292 292 292 292 291 289 288 288 289 288 287 285 284 282 281 280 280 279 279 279 279 279 279 279 280 280 280 279 278 277 275 273 272 271 271 270 270 269 269 268 267 266 265 263 263 262 261 260 259 258 258
291 292 292 293 293 294 294 294 294 294 294 294 294 294 294 294 295 295 295 295 296 296 296 297 297 298 298 298 297 296 295 294 293 293 293 292 291 290 289 288 287 287 287 286 284 282 282 282 282 282 282 281 281 280 280 280 281 281 282 281 281 280 279 279 278 277 276 275 273 272 271 271 270 269 269 268 266 265 264 263 262 261 260 259 257
292 292 293 293 294 294 294 294 294 294 294 294 294 294 294 294 294 295 295 296 296 297 297 298 298 299 298 298 297 297 296 295 294 293 292 291 289 288 287 286 286 285 284 283 281 281 281 282 283 284 284 284 283 283 282 282 283 283 283 283 282 281 280 280 279 279 279 278 276 275 274 272 271 270 270 269 268 267 266 264 263 262 262 260 259
292 293 293 293 293 294 294 294 294 294 294 294 294 294 294 294 295 295 296 296 297 297 298 298 298 298 298 298 298 298 298 297 295 293 291 289 287 287 286 286 285 284 283 282 281 281 281 282 283 283 283 283 283 283 283 283 284 284 284 284 284 283 282 282 281 280 279 278 277 277 276 274 273 272 271 270 269 268 267 265 264 263 262 261 260
292 293 293 293 294 294 294 294 294 294 294 294 294 294 294 295 296 296 297 297 297 298 298 298 298 298 298 299 299 300 299 298 295 292 290 289 288 288 288 289 288 287 286 285 283 282 282 282 282 282 282 282 282 282 283 284 284 285 286 286 286 286 286 285 283 282 280 279 278 277 276 275 274 273 273 272 271 270 269 268 266 265 264 262 261
293 294 294 294 294 294 294 294 294 294 294 294 294 295 295 296 297 297 297 298 298 298 298 298 298 298 299 299 299 300 300 296 292 290 290 291 291 291 292 293 293 292 291 290 288 286 285 285 284 283 283 283 283 284 284 285 285 286 286 287 287 287 286 285 284 282 280 279 278 277 276 276 275 275 275 274 274 273 272 271 269 267 265 264 262
294 294 295 295 295 295 295 294 294 294 294 294 295 295 296 297 297 298 298 298 298 298 298 298 299 299 299 299 299 300 298 293 288 287 290 291 292 294 296 296 296 296 296 295 294 293 292 291 290 289 289 289 289 289 289 288 288 289 288 288 287 286 285 283 282 281 280 278 278 277 276 276 276 277 277 277 277 278 277 275 272 269 267 264 262
296 296 297 297 297 296 296 296 296 296 295 295 295 296 296 297 297 298 298 298 298 298 298 299 299 299 299 299 299 300 296 289 283 285 288 290 293 295 296 296 297 297 298 297 297 297 296 296 295 295 295 295 295 294 293 293 292 292 291 289 288 286 284 283 281 280 279 278 278 277 277 277 277 277 278 278 279 279 279 278 275 272 269 265 261
299 299 299 299 299 298 298 298 298 298 297 297 297 297 297 298 298 298 298 298 298 299 299 299 299 299 299 299 299 299 294 285 281 284 287 289 291 292 292 292 293 294 294 294 294 294 293 294 294 295 295 296 296 295 294 294 294 293 292 290 288 286 284 283 281 280 279 278 278 278 277 277 277 278 278 279 280 280 280 278 276 273 269 265 261
302 302 302 301 301 300 300 300 300 299 299 299 299 299 299 299 299 299 299 298 299 299 299 300 300 299 299 299 299 297 291 283 281 283 285 286 287 288 288 289 289 290 291 291 292 292 293 293 294 295 295 296 296 296 296 296 295 294 293 291 289 287 285 283 281 280 280 280 280 280 280 280 280 280 280 281 281 281 280 278 275 272 268 265 261
306 305 304 304 303 302 302 301 301 301 300 300 300 300 300 300 300 299 299 300 300 300 301 301 300 300 299 298 297 294 285 278 278 281 283 284 286 286 287 288 289 290 291 293 294 295 296 296 297 297 297 298 298 298 298 297 296 295 293 291 289 287 285 282 281 281 281 282 283 283 283 283 283 283 283 282 282 281 279 277 274 271 267 264 261
307 307 306 305 304 304 303 303 302 301 301 301 301 301 301 300 300 300 300 301 301 302 302 302 301 300 299 298 296 291 280 273 275 279 282 285 287 288 290 291 291 292 294 296 297 297 297 298 298 298 298 298 297 297 296 296 295 294 293 291 288 285 282 281 280 281 282 283 284 285 285 285 285 285 284 283 282 280 278 277 274 271 268 264 262
308 308 307 306 306 305 304 304 303 302 301 301 301 301 301 302 302 302 302 302 303 303 304 304 303 302 301 299 295 288 278 274 276 280 284 287 289 290 292 292 294 296 297 298 299 299 299 300 300 300 299 298 298 297 296 296 295 293 291 288 285 283 282 282 283 284 285 286 288 288 289 289 288 287 286 285 283 280 278 277 274 271 268 264 261
308 309 309 308 308 307 306 304 303 302 301 301 301 301 301 302 302 302 302 303 303 303 303 304 304 303 301 299 293 283 275 276 279 282 286 288 290 292 293 294 296 299 300 302 302 303 303 303 302 302 302 301 301 300 299 298 295 292 289 285 283 283 284 285 287 289 291 293 294 294 293 292 291 290 289 287 285 282 279 276 273 270 267 263 260
308 310 310 310 309 308 307 305 304 303 302 302 301 301 301 301 301 301 301 302 303 303 303 303 303 301 299 296 290 279 273 275 280 283 286 289 291 294 296 297 299 301 303 305 306 306 306 305 305 305 305 304 303 302 300 298 294 290 287 285 284 285 288 291 294 297 299 301 301 300 298 296 295 294 292 290 287 284 281 277 273 269 266 262 260
307 309 310 311 311 310 308 307 305 303 302 302 301 301 301 301 301 301 301 301 302 302 302 301 300 299 297 294 287 277 274 278 282 286 288 290 293 296 298 300 302 304 305 306 307 308 308 308 308 308 307 306 305 303 300 295 291 288 287 287 287 290 294 299 303 305 307 307 305 302 300 299 299 298 296 293 289 287 283 277 272 268 265 262 259
306 308 310 312 312 311 310 308 306 303 302 301 301 300 300 301 301 301 301 301 301 300 300 299 298 296 294 290 283 278 279 283 286 288 289 291 294 297 300 304 306 308 309 310 311 311 311 311 310 310 309 308 306 303 298 293 289 288 288 290 293 297 302 306 309 311 312 311 307 304 302 303 303 303 300 297 293 290 284 276 270 266 263 260 257
305 307 309 311 312 312 311 308 306 303 301 300 299 299 300 300 301 301 302 301 300 299 297 296 295 294 290 283 278 279 282 284 286 288 290 293 295 299 303 306 308 310 312 313 314 313 312 312 312 312 312 310 306 301 296 292 289 290 293 297 301 304 307 310 313 314 314 312 308 305 305 307 307 306 303 301 299 294 285 274 267 263 259 258 255
304 306 308 311 312 312 311 309 306 303 300 299 298 299 299 300 301 302 302 301 300 298 296 293 293 292 286 278 277 282 285 285 286 289 292 295 298 302 305 307 310 312 314 314 314 313 313 314 314 314 314 311 305 299 295 291 290 293 299 304 307 309 311 314 316 317 317 314 310 308 309 311 312 310 305 302 303 300 289 277 268 262 257 254 251
304 306 307 309 311 312 311 309 306 302 299 298 298 299 300 301 302 302 301 300 298 297 295 292 288 284 280 278 281 285 288 289 291 293 295 298 302 306 309 310 312 313 314 314 314 314 315 316 316 317 316 313 307 300 295 293 292 295 301 306 310 312 314 317 318 319 319 316 312 311 313 315 317 315 308 302 302 303 297 284 272 264 258 253 248
303 305 306 308 310 311 311 309 305 301 299 298 298 299 300 301 302 302 300 299 297 296 293 288 280 273 273 278 282 285 287 290 293 296 298 301 305 308 310 311 313 314 314 315 315 317 318 319 320 320 319 316 310 304 299 297 296 297 300 306 310 312 315 318 320 321 321 318 314 313 315 319 322 321 315 305 300 301 300 292 279 268 260 255 251
302 304 305 307 309 310 310 308 304 300 298 298 299 300 301 302 301 301 299 297 296 294 289 280 270 267 272 278 282 284 287 290 294 296 299 303 307 309 310 312 313 314 315 315 317 319 320 321 322 323 324 323 316 309 304 302 301 300 301 306 310 312 315 319 322 324 323 321 317 315 316 321 326 327 324 316 304 298 296 294 286 275 264 256 253
302 303 304 306 308 310 310 307 303 299 298 298 299 301 301 301 300 299 298 296 294 290 280 268 263 267 274 279 281 284 288 291 294 296 300 305 308 309 311 312 313 314 315 316 318 320 321 322 322 324 327 329 325 317 310 305 303 302 303 306 310 313 316 320 325 327 328 327 323 319 319 323 328 331 332 328 317 304 294 290 286 281 271 261 253
301 302 303 305 307 309 308 305 301 298 297 298 300 300 300 299 298 298 297 294 289 280 268 261 264 270 275 279 282 285 289 292 294 298 302 306 308 310 311 312 314 315 315 317 319 321 322 322 322 323 326 330 331 326 318 310 306 304 305 307 311 315 318 322 327 330 332 333 331 327 325 325 329 332 335 336 331 318 302 290 283 280 276 270 261
300 301 303 305 307 308 307 303 299 297 297 299 299 299 297 297 297 297 295 289 279 266 259 262 268 273 276 279 283 287 290 293 296 300 304 307 309 311 312 313 314 315 316 317 319 321 322 323 322 321 324 328 331 332 327 319 312 308 308 310 313 316 319 323 329 333 335 337 338 336 333 331 332 334 336 337 337 331 319 302 288 280 276 273 269
299 301 302 305 307 307 304 300 297 297 298 298 298 296 295 295 295 294 289 277 263 256 259 266 271 275 278 281 285 289 292 294 298 302 306 308 310 312 313 314 314 315 316 318 320 321 323 324 323 321 321 324 329 332 333 330 324 318 315 313 314 316 319 323 328 332 336 339 341 341 340 338 337 339 339 337 336 335 332 323 308 293 282 274 269
299 300 302 304 306 304 301 298 296 297 296 296 294 293 292 293 293 288 275 260 253 256 263 269 272 276 280 284 288 291 293 296 301 305 308 310 312 313 314 314 314 314 315 317 319 321 323 324 324 323 321 321 324 328 332 333 332 330 327 323 319 318 318 321 325 329 334 337 340 342 343 342 341 342 343 341 339 336 335 334 327 316 301 286 275
299 300 302 304 304 301 298 296 295 295 294 292 290 289 291 291 286 272 256 251 254 261 266 269 273 277 282 286 290 292 295 299 304 307 310 312 313 314 313 313 313 313 314 315 317 320 322 324 325 324 322 320 320 322 326 329 332 334 335 334 330 326 323 323 325 328 331 334 337 340 342 343 342 342 343 344 343 340 337 336 335 329 321 309 293
299 300 302 302 300 297 295 294 293 291 289 287 286 287 288 283 269 253 248 253 259 263 267 271 274 278 283 287 290 293 297 302 307 310 312 313 313 313 313 313 312 313 313 313 315 317 319 322 323 324 323 322 320 319 321 323 327 330 334 337 337 335 334 333 333 332 331 331 334 338 340 342 342 341 341 343 344 342 339 338 337 336 331 326 317
299 301 301 299 297 294 293 291 288 286 284 283 284 285 279 265 248 244 250 257 261 265 269 272 275 280 284 288 292 296 301 305 309 312 313 314 313 313 312 312 312 312 313 313 313 314 316 319 321 323 324 324 322 320 319 320 321 324 327 331 334 337 339 340 339 337 334 332 332 334 337 340 342 342 341 341 342 343 342 340 340 340 340 339 335
300 300 298 296 293 291 289 286 284 281 280 281 281 275 260 244 239 246 253 258 262 265 269 272 277 282 286 290 295 299 304 308 311 313 313 314 313 312 311 311 311 312 313 313 312 312 313 315 318 320 322 323 323 322 321 319 319 319 321 324 327 330 334 336 338 338 338 337 336 335 335 336 339 340 340 339 340 342 344 345 344 343 343 343 342
299 297 295 293 290 288 284 281 279 277 277 276 270 254 238 234 242 249 254 257 261 264 267 273 279 284 289 294 298 303 307 310 312 314 314 314 313 313 311 311 311 312 313 314 313 312 311 311 313 316 318 320 321 322 322 321 320 319 319 320 321 323 325 328 331 333 336 339 340 340 338 336 335 336 337 338 338 339 341 344 345 345 344 343 341
296 294 292 290 287 283 280 277 275 274 272 264 247 231 229 236 245 250 253 258 261 264 268 275 281 286 292 297 301 305 309 312 313 314 315 315 314 313 312 311 311 312 314 314 314 313 312 310 309 311 313 316 318 319 321 321 321 321 321 320 320 320 320 321 323 325 328 332 336 339 341 340 338 337 336 336 337 338 340 341 342 343 344 344 344
Height
5650 5649 5647 5646 5644 5642 5640 5638 5636 5634 5632 5631 5629 5627 5625 5623 5621 5619 5617 5616 5614 5612 5611 5609 5607 5605 5603 5600 5598 5596 5594 5592 5591 5589 5588 5587 5586 5585 5585 5584 5584 5584 5584 5583 5581 5579 5580 5581 5582 5580 5578 5580 5582 5581 5581 5579 5579 5579 5580 5580 5582 5583 5584 5585 5589 5598 5602 5603 5607 5610 5609 5610 5613 5613 5614 5615 5616 5615 5617 5619 5620 5622 5624 5625 5627
5641 5640 5638 5636 5634 5632 5629 5627 5625 5624 5622 5620 5619 5617 5615 5613 5611 5608 5606 5604 5602 5601 5599 5597 5595 5593 5591 5589 5586 5584 5583 5581 5578 5577 5575 5574 5573 5571 5569 5569 5569 5570 5570 5570 5568 5566 5565 5566 5567 5565 5563 5564 5567 5567 5566 5566 5565 5566 5567 5567 5568 5570 5569 5570 5574 5581 5587 5590 5592 5595 5597 5598 5601 5603 5602 5604 5605 5605 5607 5608 5608 5610 5612 5613 5616
5632 5630 5628 5626 5624 5621 5619 5617 5615 5614 5612 5610 5608 5606 5604 5601 5599 5597 5594 5592 5589 5588 5586 5585 5583 5580 5578 5576 5574 5572 5570 5568 5566 5564 5562 5561 5560 5558 5556 5554 5554 5554 5554 5554 5554 5552 5551 5552 5551 5549 5548 5549 5551 5551 5550 5551 5551 5552 5554 5554 5554 5556 5556 5556 5559 5565 5571 5575 5577 5580 5583 5584 5588 5591 5590 5591 5594 5594 5596 5598 5597 5599 5601 5601 5604
5622 5620 5618 5616 5614 5612 5609 5608 5606 5604 5602 5600 5597 5595 5592 5590 5587 5584 5582 5580 5577 5575 5573 5571 5569 5567 5565 5563 5561 5558 5556 5554 5552 5550 5548 5547 5546 5545 5543 5541 5540 5539 5538 5538 5538 5537 5536 5537 5536 5534 5533 5534 5536 5536 5534 5535 5535 5535 5537 5539 5538 5540 5542 5542 5544 5549 5554 5560 5564 5566 5567 5569 5573 5577 5577 5578 5581 5582 5584 5587 5587 5588 5590 5590 5592
5612 5610 5608 5606 5604 5602 5600 5598 5596 5594 5591 5589 5586 5583 5580 5578 5575 5572 5570 5567 5565 5563 5560 5558 5555 5553 5551 5549 5547 5545 5542 5540 5538 5536 5534 5532 5531 5530 5529 5527 5526 5525 5524 5523 5522 5520 5519 5519 5519 5518 5517 5518 5520 5520 5518 5519 5520 5519 5521 5522 5522 5522 5525 5527 5529 5532 5536 5543 5551 5552 5553 5555 5557 5561 5563 5564 5567 5570 5572 5574 5575 5576 5578 5578 5580
5602 5600 5598 5596 5594 5592 5590 5588 5585 5583 5581 5578 5575 5572 5569 5566 5562 5560 5557 5555 5552 5549 5547 5544 5541 5539 5537 5535 5533 5530 5528 5526 5523 5521 5520 5518 5517 5515 5514 5513 5512 5510 5509 5508 5506 5505 5504 5503 5503 5501 5500 5501 5502 5502 5502 5502 5503 5504 5505 5506 5506 5505 5508 5511 5512 5514 5517 5524 5532 5537 5539 5542 5543 5545 5548 5548 5551 5556 5559 5560 5562 5563 5564 5567 5568
5592 5590 5588 5586 5583 5582 5579 5577 5575 5572 5570 5566 5563 5560 5557 5553 5550 5547 5544 5542 5539 5537 5534 5531 5528 5525 5523 5520 5518 5515 5513 5511 5508 5506 5504 5502 5501 5500 5499 5498 5497 5495 5494 5492 5491 5490 5489 5488 5488 5487 5485 5485 5485 5485 5484 5484 5486 5487 5488 5489 5490 5490 5492 5495 5496 5496 5500 5505 5512 5518 5522 5525 5528 5531 5533 5532 5533 5540 5544 5544 5547 5550 5551 5553 5556
5582 5579 5577 5575 5573 5571 5569 5567 5564 5561 5558 5555 5552 5548 5545 5541 5538 5535 5532 5529 5527 5524 5522 5519 5516 5513 5510 5507 5505 5502 5499 5496 5493 5490 5488 5487 5485 5484 5484 5482 5481 5480 5479 5478 5477 5475 5474 5473 5472 5471 5471 5470 5470 5470 5469 5470 5470 5471 5472 5471 5471 5473 5475 5478 5479 5480 5483 5487 5493 5499 5502 5505 5510 5515 5517 5517 5519 5525 5526 5523 5528 5537 5538 5537 5542
5572 5569 5567 5565 5563 5561 5558 5556 5553 5550 5547 5544 5540 5537 5533 5530 5526 5523 5520 5517 5515 5512 5509 5506 5504 5501 5498 5495 5492 5489 5486 5483 5479 5476 5474 5472 5471 5469 5468 5466 5465 5465 5464 5464 5463 5460 5459 5457 5456 5455 5454 5454 5455 5455 5456 5457 5457 5457 5459 5458 5456 5457 5458 5459 5461 5463 5465 5468 5474 5480 5483 5485 5491 5496 5498 5500 5502 5507 5509 5505 5510 5520 5521 5520 5527
5562 5559 5557 5554 5552 5550 5547 5544 5542 5539 5536 5532 5529 5525 5522 5518 5515 5511 5508 5506 5503 5500 5497 5494 5491 5489 5486 5484 5481 5478 5474 5471 5467 5464 5461 5459 5457 5456 5454 5453 5451 5450 5450 5450 5449 5447 5444 5442 5441 5440 5439 5439 5439 5439 5439 5441 5441 5442 5443 5444 5443 5443 5445 5445 5446 5446 5446 5448 5453 5460 5462 5467 5474 5478 5479 5481 5484 5486 5489 5489 5492 5500 5502 5502 5512
5552 5549 5546 5544 5541 5539 5536 5533 5530 5527 5523 5520 5517 5513 5509 5506 5503 5500 5497 5494 5491 5488 5485 5483 5480 5478 5476 5473 5471 5468 5464 5460 5456 5453 5450 5447 5444 5443 5442 5440 5439 5438 5437 5436 5435 5433 5431 5428 5427 5426 5425 5424 5424 5424 5424 5424 5425 5425 5425 5426 5426 5427 5429 5430 5431 5431 5430 5430 5434 5439 5441 5447 5458 5462 5461 5464 5465 5464 5467 5470 5473 5480 5484 5484 5493
5542 5539 5536 5533 5530 5527 5524 5521 5518 5514 5511 5508 5504 5501 5498 5494 5491 5489 5486 5483 5480 5478 5475 5473 5470 5468 5466 5463 5461 5458 5454 5450 5446 5443 5440 5436 5433 5430 5429 5429 5428 5426 5425 5423 5422 5420 5418 5417 5415 5414 5413 5411 5409 5409 5409 5409 5409 5409 5409 5409 5410 5410 5411 5411 5411 5414 5414 5413 5416 5421 5425 5430 5438 5445 5445 5445 5445 5444 5446 5451 5454 5459 5463 5465 5472
5532 5528 5525 5522 5519 5516 5512 5509 5506 5502 5499 5496 5493 5490 5487 5484 5481 5479 5476 5473 5471 5468 5466 5464 5461 5459 5456 5454 5451 5448 5444 5440 5436 5433 5429 5426 5422 5420 5419 5418 5417 5416 5414 5412 5410 5408 5406 5405 5404 5402 5401 5399 5397 5396 5395 5395 5394 5394 5394 5395 5395 5396 5395 5394 5393 5394 5395 5397 5399 5406 5414 5416 5417 5424 5428 5425 5423 5425 5428 5433 5436 5437 5441 5445 5453
5521 5517 5514 5511 5507 5504 5501 5498 5495 5491 5488 5485 5482 5480 5477 5474 5472 5470 5467 5465 5462 5460 5457 5455 5452 5449 5447 5444 5442 5439 5434 5430 5426 5423 5419 5416 5412 5410 5409 5408 5407 5405 5403 5400 5398 5396 5394 5393 5392 5391 5389 5387 5385 5383 5382 5382 5382 5382 5383 5383 5383 5383 5382 5381 5379 5378 5378 5382 5385 5391 5398 5399 5397 5404 5410 5406 5404 5407 5410 5414 5417 5418 5421 5426 5433
5510 5506 5503 5499 5496 5493 5490 5487 5484 5481 5479 5476 5473 5471 5468 5466 5464 5461 5459 5456 5454 5451 5449 5446 5444 5441 5438 5435 5432 5429 5425 5420 5416 5413 5409 5406 5403 5401 5400 5399 5397 5395 5392 5389 5387 5384 5383 5381 5379 5378 5377 5375 5373 5371 5370 5371 5371 5371 5372 5371 5371 5371 5370 5369 5368 5367 5367 5368 5369 5373 5379 5381 5381 5385 5391 5391 5388 5390 5392 5393 5396 5399 5402 5407 5414
5499 5495 5492 5489 5486 5483 5480 5478 5475 5472 5470 5467 5465 5462 5460 5457 5455 5453 5451 5448 5445 5442 5440 5437 5435 5432 5429 5425 5423 5420 5415 5409 5406 5403 5399 5396 5394 5392 5391 5389 5387 5385 5382 5379 5376 5374 5372 5370 5367 5366 5365 5364 5362 5360 5359 5360 5360 5360 5361 5360 5359 5359 5358 5357 5357 5356 5356 5355 5356 5358 5361 5365 5366 5368 5373 5375 5374 5374 5375 5374 5376 5381 5384 5387 5394
5488 5485 5482 5478 5476 5473 5471 5469 5466 5464 5461 5459 5456 5454 5451 5449 5446 5444 5442 5439 5436 5433 5431 5428 5425 5423 5419 5416 5413 5411 5406 5400 5395 5392 5389 5386 5384 5383 5382 5380 5377 5375 5372 5369 5367 5364 5362 5359 5357 5356 5355 5354 5352 5351 5350 5350 5350 5351 5351 5350 5349 5349 5349 5348 5346 5346 5345 5344 5345 5347 5348 5350 5352 5353 5356 5359 5360 5360 5358 5356 5361 5366 5365 5366 5373
5478 5475 5472 5469 5466 5464 5462 5460 5458 5455 5453 5450 5448 5445 5442 5440 5437 5435 5432 5430 5427 5425 5422 5419 5417 5413 5410 5407 5403 5400 5396 5391 5386 5383 5379 5376 5375 5374 5373 5371 5368 5365 5363 5361 5358 5356 5354 5351 5349 5348 5348 5346 5345 5343 5342 5341 5341 5342 5342 5341 5341 5341 5340 5338 5337 5337 5335 5335 5336 5336 5337 5338 5339 5339 5342 5344 5345 5346 5342 5341 5348 5351 5348 5349 5356
5468 5465 5462 5460 5458 5456 5454 5452 5449 5447 5445 5442 5439 5437 5434 5431 5429 5426 5423 5420 5418 5416 5413 5411 5408 5404 5400 5397 5393 5389 5386 5381 5376 5373 5370 5367 5365 5364 5363 5362 5359 5357 5355 5353 5351 5348 5346 5344 5342 5341 5340 5339 5338 5336 5334 5333 5333 5333 5333 5333 5333 5333 5331 5329 5328 5328 5327 5327 5327 5327 5327 5327 5327 5328 5330 5330 5331 5331 5328 5328 5333 5333 5331 5336 5341
5460 5457 5454 5452 5450 5448 5446 5444 5441 5439 5436 5434 5431 5428 5425 5423 5420 5417 5414 5411 5409 5407 5404 5401 5399 5396 5391 5387 5383 5378 5374 5371 5367 5364 5362 5359 5356 5355 5354 5353 5351 5350 5348 5346 5344 5342 5339 5337 5336 5334 5333 5332 5331 5329 5327 5326 5325 5325 5325 5325 5324 5324 5322 5321 5320 5319 5319 5319 5319 5318 5318 5317 5317 5317 5317 5317 5318 5317 5316 5316 5317 5317 5317 5321 5325
5452 5449 5447 5445 5443 5441 5439 5436 5434 5431 5428 5426 5423 5420 5416 5414 5411 5408 5405 5403 5400 5398 5395 5392 5390 5387 5382 5378 5373 5368 5364 5361 5359 5356 5354 5351 5349 5347 5346 5345 5343 5342 5341 5339 5337 5335 5333 5331 5330 5328 5326 5324 5323 5321 5320 5318 5317 5317 5317 5316 5315 5314 5313 5313 5312 5311 5311 5310 5309 5309 5308 5308 5307 5306 5306 5306 5305 5304 5303 5303 5304 5303 5303 5305 5309
5445 5442 5440 5438 5436 5434 5431 5428 5426 5423 5420 5417 5415 5411 5408 5405 5402 5399 5397 5394 5392 5389 5386 5383 5381 5378 5374 5369 5365 5360 5356 5352 5350 5348 5347 5344 5342 5340 5339 5338 5336 5334 5334 5333 5330 5328 5327 5326 5324 5321 5319 5318 5316 5314 5312 5311 5309 5309 5308 5307 5306 5305 5304 5304 5303 5302 5302 5301 5300 5300 5299 5298 5297 5297 5296 5295 5294 5292 5292 5291 5291 5290 5290 5291 5293
5438 5436 5433 5431 5428 5426 5423 5420 5417 5415 5412 5409 5406 5403 5399 5396 5393 5390 5387 5385 5383 5380 5377 5374 5372 5370 5367 5362 5358 5353 5349 5345 5342 5341 5340 5338 5336 5334 5332 5330 5328 5327 5326 5326 5324 5322 5321 5319 5317 5315 5312 5311 5309 5307 5306 5304 5302 5301 5300 5298 5297 5296 5295 5295 5294 5293 5292 5292 5291 5290 5290 5287 5286 5286 5285 5283 5283 5282 5281 5281 5280 5278 5278 5278 5279
5431 5429 5426 5423 5421 5418 5415 5412 5409 5406 5403 5400 5397 5394 5391 5388 5385 5381 5378 5376 5374 5372 5368 5365 5363 5361 5358 5356 5352 5347 5343 5339 5336 5335 5333 5332 5330 5328 5326 5324 5321 5320 5319 5318 5317 5315 5314 5312 5310 5307 5306 5304 5303 5301 5299 5297 5296 5294 5293 5291 5289 5288 5287 5286 5284 5283 5282 5282 5281 5280 5279 5276 5275 5275 5274 5272 5272 5272 5271 5270 5269 5267 5266 5266 5266
5424 5421 5418 5415 5413 5410 5407 5403 5400 5397 5394 5391 5388 5385 5382 5380 5377 5373 5370 5367 5365 5363 5360 5357 5355 5352 5350 5348 5345 5341 5337 5334 5332 5330 5328 5327 5325 5323 5320 5318 5315 5314 5313 5311 5310 5308 5306 5304 5302 5300 5299 5297 5296 5294 5291 5289 5288 5286 5285 5283 5281 5280 5278 5276 5275 5274 5273 5272 5270 5270 5269 5266 5264 5264 5262 5260 5260 5260 5259 5257 5256 5255 5254 5253 5252
5417 5413 5410 5407 5404 5401 5398 5395 5391 5388 5385 5382 5379 5376 5374 5371 5368 5365 5361 5359 5357 5354 5352 5349 5346 5344 5342 5340 5338 5335 5331 5328 5326 5325 5323 5322 5320 5317 5315 5313 5311 5309 5307 5305 5304 5302 5299 5297 5296 5294 5292 5290 5288 5286 5284 5281 5279 5277 5276 5274 5272 5270 5268 5266 5265 5264 5263 5262 5260 5259 5259 5256 5254 5253 5251 5248 5248 5248 5245 5242 5241 5241 5241 5238 5237
5409 5405 5402 5399 5396 5393 5390 5386 5383 5379 5376 5373 5370 5367 5365 5363 5360 5357 5353 5351 5349 5347 5344 5341 5339 5336 5335 5332 5330 5328 5325 5322 5321 5319 5317 5316 5315 5312 5310 5308 5307 5305 5303 5301 5299 5297 5294 5292 5290 5288 5286 5284 5281 5279 5276 5274 5271 5269 5266 5264 5262 5260 5258 5256 5255 5254 5252 5251 5250 5249 5248 5246 5243 5242 5239 5236 5236 5235 5231 5226 5225 5226 5226 5222 5220
5401 5397 5394 5391 5388 5385 5382 5378 5375 5372 5368 5365 5362 5359 5356 5354 5352 5349 5345 5343 5341 5339 5337 5334 5331 5328 5327 5325 5322 5320 5318 5316 5314 5313 5312 5310 5309 5307 5305 5303 5302 5300 5298 5295 5294 5291 5289 5287 5285 5282 5280 5277 5274 5271 5268 5265 5262 5259 5256 5253 5251 5249 5248 5246 5245 5243 5241 5240 5239 5238 5236 5234 5231 5229 5226 5223 5222 5220 5215 5210 5209 5210 5210 5206 5205
5393 5390 5386 5383 5380 5377 5374 5371 5368 5365 5361 5358 5355 5352 5349 5347 5345 5342 5338 5335 5333 5332 5329 5327 5324 5321 5320 5317 5315 5313 5312 5310 5309 5308 5306 5304 5303 5301 5299 5297 5295 5293 5291 5289 5286 5284 5282 5280 5277 5275 5272 5269 5266 5263 5259 5256 5253 5249 5246 5244 5241 5239 5238 5236 5234 5233 5231 5230 5228 5226 5224 5221 5219 5216 5212 5210 5208 5204 5199 5195 5194 5194 5194 5192 5192
5386 5383 5380 5376 5373 5370 5367 5364 5360 5357 5355 5352 5349 5346 5343 5339 5337 5335 5333 5329 5326 5323 5322 5319 5316 5313 5312 5310 5307 5305 5304 5304 5303 5301 5300 5298 5296 5294 5292 5291 5289 5287 5285 5282 5280 5277 5276 5273 5270 5267 5264 5261 5258 5255 5251 5248 5245 5241 5238 5235 5232 5230 5229 5226 5225 5224 5223 5221 5218 5216 5213 5209 5206 5203 5198 5195 5193 5189 5185 5182 5180 5180 5180 5180 5181
5380 5376 5373 5370 5367 5364 5360 5357 5354 5351 5348 5345 5343 5341 5338 5334 5329 5327 5325 5322 5319 5315 5313 5311 5308 5304 5302 5301 5300 5298 5297 5296 5296 5295 5294 5292 5289 5287 5286 5284 5283 5280 5278 5276 5273 5270 5268 5266 5262 5259 5256 5253 5250 5247 5243 5240 5237 5233 5230 5227 5224 5222 5221 5219 5217 5216 5215 5212 5209 5205 5201 5197 5193 5189 5185 5181 5179 5176 5173 5170 5168 5168 5168 5168 5169
5374 5370 5367 5364 5360 5357 5354 5351 5347 5344 5341 5339 5336 5334 5332 5329 5325 5320 5316 5314 5312 5308 5305 5303 5300 5297 5294 5293 5292 5291 5290 5290 5290 5289 5287 5286 5283 5281 5279 5278 5276 5274 5271 5268 5266 5263 5260 5258 5254 5251 5248 5244 5241 5238 5234 5231 5228 5225 5223 5221 5218 5215 5213 5211 5210 5208 5205 5202 5198 5194 5189 5185 5180 5177 5173 5169 5166 5164 5162 5159 5158 5157 5157 5157 5159
5367 5364 5361 5357 5354 5351 5347 5344 5341 5338 5335 5332 5329 5327 5324 5322 5321 5317 5312 5307 5304 5301 5297 5295 5293 5290 5287 5285 5285 5285 5284 5284 5284 5283 5282 5280 5277 5275 5273 5271 5269 5267 5264 5261 5258 5256 5253 5250 5247 5243 5240 5236 5233 5229 5225 5222 5220 5217 5216 5215 5213 5210 5207 5205 5202 5200 5196 5192 5187 5182 5178 5174 5170 5166 5163 5159 5156 5153 5151 5150 5148 5148 5147 5148 5150
5361 5358 5354 5351 5348 5344 5340 5337 5334 5331 5328 5325 5322 5320 5317 5314 5312 5311 5308 5303 5299 5294 5290 5287 5285 5283 5281 5279 5279 5279 5278 5278 5277 5277 5276 5274 5272 5270 5267 5264 5262 5260 5258 5255 5252 5249 5246 5242 5239 5236 5232 5228 5225 5221 5218 5215 5213 5211 5210 5209 5207 5204 5202 5199 5195 5192 5188 5184 5179 5174 5169 5165 5161 5158 5155 5151 5148 5145 5143 5141 5140 5140 5140 5141 5142
5354 5351 5347 5344 5341 5337 5334 5330 5327 5324 5321 5318 5315 5312 5310 5307 5304 5301 5299 5297 5293 5289 5284 5280 5277 5277 5275 5274 5273 5273 5273 5273 5272 5271 5270 5268 5267 5264 5261 5258 5256 5253 5251 5249 5246 5242 5239 5235 5232 5228 5225 5221 5217 5214 5212 5210 5208 5207 5205 5204 5201 5199 5196 5193 5189 5185 5181 5176 5172 5167 5163 5158 5154 5150 5148 5145 5142 5139 5136 5135 5134 5133 5134 5135 5136
5347 5343 5340 5337 5334 5330 5327 5323 5320 5317 5314 5311 5308 5305 5302 5299 5296 5293 5290 5287 5285 5282 5279 5275 5272 5270 5270 5270 5269 5269 5269 5268 5267 5266 5265 5263 5261 5259 5257 5254 5251 5248 5245 5243 5239 5236 5233 5229 5225 5222 5218 5215 5211 5209 5206 5205 5203 5202 5200 5198 5196 5194 5190 5187 5184 5180 5175 5170 5165 5161 5157 5153 5148 5144 5142 5139 5137 5134 5131 5129 5128 5128 5129 5130 5131
5339 5336 5333 5329 5326 5323 5320 5316 5313 5310 5307 5304 5301 5298 5295 5292 5289 5286 5282 5279 5277 5275 5272 5270 5267 5265 5265 5265 5264 5264 5263 5263 5262 5260 5259 5257 5256 5254 5251 5249 5246 5243 5240 5237 5234 5231 5227 5223 5220 5216 5212 5209 5206 5204 5202 5200 5199 5197 5195 5193 5191 5188 5185 5182 5178 5174 5169 5164 5160 5156 5152 5148 5143 5140 5137 5134 5132 5130 5127 5125 5124 5124 5125 5125 5127
5331 5328 5325 5322 5319 5316 5312 5309 5305 5302 5299 5296 5293 5290 5288 5284 5281 5278 5275 5272 5270 5268 5266 5264 5263 5261 5261 5261 5260 5259 5258 5258 5256 5255 5254 5252 5250 5248 5245 5243 5240 5238 5235 5232 5229 5226 5222 5218 5215 5211 5207 5204 5201 5199 5197 5196 5194 5193 5191 5188 5185 5183 5180 5176 5172 5168 5163 5159 5155 5151 5147 5143 5139 5136 5133 5131 5129 5127 5124 5122 5121 5121 5121 5122 5123
5324 5321 5317 5315 5312 5308 5305 5302 5298 5294 5292 5289 5286 5283 5280 5277 5273 5271 5268 5265 5263 5262 5260 5258 5258 5257 5257 5257 5257 5256 5255 5253 5252 5251 5249 5247 5245 5243 5240 5238 5235 5233 5230 5227 5224 5221 5217 5213 5210 5206 5203 5200 5197 5195 5193 5191 5190 5188 5186 5184 5181 5178 5175 5172 5168 5164 5159 5154 5150 5147 5143 5140 5136 5132 5129 5127 5126 5124 5122 5121 5119 5119 5119 5119 5120
5316 5313 5310 5307 5304 5300 5297 5294 5290 5287 5284 5281 5278 5275 5272 5269 5266 5263 5261 5259 5257 5255 5254 5253 5253 5253 5253 5253 5253 5252 5251 5249 5248 5246 5244 5242 5240 5238 5236 5234 5231 5228 5225 5223 5220 5216 5213 5209 5206 5202 5199 5196 5193 5190 5188 5187 5185 5183 5181 5179 5177 5174 5171 5168 5164 5160 5155 5151 5147 5143 5140 5137 5133 5130 5126 5124 5123 5122 5121 5119 5118 5117 5117 5117 5118
5308 5305 5302 5299 5295 5292 5289 5286 5282 5279 5276 5274 5271 5268 5265 5262 5259 5257 5255 5253 5251 5250 5249 5248 5249 5249 5249 5249 5248 5247 5246 5245 5244 5242 5240 5238 5236 5234 5231 5229 5227 5224 5221 5218 5215 5212 5209 5206 5202 5199 5196 5193 5189 5187 5184 5182 5181 5179 5177 5175 5173 5170 5167 5164 5160 5156 5152 5148 5144 5140 5137 5134 5131 5128 5125 5122 5120 5119 5118 5117 5116 5115 5115 5115 5115
5300 5297 5294 5290 5287 5284 5281 5277 5274 5271 5269 5266 5263 5261 5258 5255 5253 5251 5249 5247 5245 5244 5244 5244 5245 5245 5245 5244 5244 5243 5242 5241 5239 5238 5236 5234 5231 5229 5227 5224 5222 5220 5217 5214 5211 5208 5205 5202 5199 5196 5193 5190 5187 5184 5181 5179 5177 5175 5173 5171 5169 5166 5163 5160 5157 5153 5149 5145 5141 5138 5135 5131 5128 5126 5123 5120 5118 5117 5116 5115 5114 5114 5113 5113 5113
5291 5289 5285 5282 5279 5275 5272 5269 5266 5263 5261 5259 5256 5253 5251 5249 5247 5245 5243 5241 5240 5240 5240 5241 5241 5241 5241 5240 5239 5238 5237 5236 5235 5233 5231 5229 5227 5224 5222 5219 5217 5215 5213 5210 5207 5204 5201 5198 5195 5193 5190 5188 5184 5181 5179 5176 5174 5171 5169 5167 5165 5162 5160 5157 5154 5150 5147 5143 5139 5135 5132 5129 5126 5123 5121 5118 5116 5115 5114 5112 5112 5111 5111 5111 5112
5283 5280 5276 5273 5270 5266 5263 5260 5258 5255 5253 5251 5249 5246 5245 5242 5240 5239 5237 5236 5236 5237 5237 5237 5237 5237 5236 5236 5235 5234 5233 5232 5230 5228 5226 5224 5222 5220 5217 5215 5212 5210 5208 5206 5203 5200 5197 5194 5191 5188 5186 5184 5181 5179 5176 5173 5170 5168 5166 5164 5161 5159 5157 5154 5151 5148 5145 5141 5137 5133 5130 5127 5124 5121 5119 5117 5115 5113 5112 5111 5109 5109 5109 5109 5109
5274 5271 5267 5264 5261 5257 5254 5252 5249 5247 5245 5243 5241 5240 5238 5236 5235 5233 5232 5232 5233 5233 5234 5234 5234 5233 5232 5231 5230 5230 5229 5227 5225 5223 5221 5219 5217 5215 5213 5211 5208 5206 5203 5201 5199 5196 5194 5191 5188 5185 5183 5180 5178 5176 5173 5170 5168 5165 5163 5161 5159 5156 5154 5151 5149 5146 5143 5140 5136 5133 5129 5126 5123 5121 5118 5116 5114 5112 5111 5109 5108 5107 5106 5106 5106
5264 5261 5258 5254 5251 5248 5245 5243 5241 5239 5238 5236 5234 5233 5232 5230 5229 5228 5228 5229 5230 5230 5230 5230 5230 5229 5228 5227 5226 5226 5225 5223 5221 5219 5217 5215 5213 5211 5208 5207 5204 5202 5200 5197 5195 5193 5190 5188 5185 5182 5180 5177 5175 5173 5171 5168 5166 5163 5160 5158 5155 5153 5151 5149 5146 5143 5141 5138 5135 5132 5129 5126 5123 5120 5118 5116 5114 5112 5110 5108 5107 5105 5104 5104 5104
5254 5251 5247 5244 5241 5238 5236 5234 5232 5231 5230 5229 5228 5227 5226 5225 5224 5225 5225 5226 5226 5226 5227 5226 5226 5225 5225 5224 5223 5222 5220 5219 5217 5215 5213 5211 5209 5207 5204 5202 5200 5198 5196 5194 5191 5189 5187 5184 5182 5180 5177 5174 5172 5170 5167 5165 5163 5161 5158 5156 5153 5151 5148 5146 5143 5141 5138 5136 5133 5131 5128 5125 5122 5120 5118 5116 5114 5111 5109 5107 5106 5105 5104 5103 5102
5244 5240 5236 5233 5230 5228 5226 5225 5224 5223 5223 5222 5221 5221 5220 5220 5220 5221 5222 5222 5223 5223 5223 5223 5222 5222 5221 5220 5219 5218 5216 5215 5213 5211 5209 5207 5205 5203 5201 5199 5196 5194 5192 5190 5188 5186 5183 5181 5179 5177 5174 5172 5169 5167 5164 5162 5160 5158 5156 5154 5151 5149 5146 5144 5141 5139 5136 5134 5132 5129 5127 5124 5122 5119 5117 5115 5113 5111 5109 5107 5106 5104 5103 5102 5101
5232 5228 5225 5222 5220 5219 5217 5217 5216 5216 5216 5216 5215 5215 5215 5216 5217 5218 5219 5219 5219 5219 5219 5219 5218 5218 5217 5216 5216 5214 5213 5211 5209 5207 5205 5203 5201 5199 5197 5195 5193 5191 5189 5186 5184 5182 5180 5178 5176 5173 5171 5169 5167 5164 5162 5160 5158 5155 5153 5151 5149 5147 5145 5143 5140 5138 5135 5133 5130 5128 5126 5123 5121 5119 5117 5115 5113 5111 5109 5107 5106 5104 5103 5102 5101
5220 5217 5214 5212 5211 5210 5209 5209 5209 5209 5209 5209 5209 5210 5211 5212 5213 5214 5215 5215 5216 5216 5216 5215 5215 5214 5214 5213 5212 5210 5209 5207 5205 5203 5201 5199 5197 5195 5193 5191 5189 5187 5185 5183 5181 5178 5176 5174 5172 5170 5168 5166 5164 5162 5160 5157 5155 5153 5151 5149 5147 5145 5143 5141 5139 5137 5134 5132 5129 5127 5125 5123 5120 5118 5117 5114 5112 5111 5109 5107 5105 5104 5103 5101 5100
5209 5206 5204 5202 5201 5201 5201 5201 5202 5202 5203 5203 5204 5206 5208 5209 5210 5211 5212 5212 5212 5212 5212 5212 5211 5211 5210 5209 5208 5206 5205 5203 5201 5200 5198 5196 5193 5191 5189 5187 5185 5184 5181 5179 5177 5175 5173 5171 5169 5167 5165 5163 5161 5159 5157 5155 5153 5151 5149 5147 5145 5143 5141 5139 5137 5135 5133 5131 5129 5126 5124 5122 5120 5118 5116 5114 5112 5110 5109 5107 5105 5104 5102 5101 5100